Wetbulb
67.61 71.41 72.84 73.26 72.83 72.58 72.48 72.23 72.55 72.58 72.86 73.15 73.23 73.32 73.44 73.81 73.82 73.68 73.56 73.31 73.00 72.42 72.25 72.03 71.20 71.20 71.41 71.11 70.89 70.88 70.79 71.17 70.71 70.69 70.62 70.94 71.26 71.61 71.71 71.42 71.45 70.78 71.91
69.10 71.68 72.30 72.83 72.66 72.36 72.33 72.36 72.68 72.89 73.18 73.43 73.33 73.30 73.26 73.33 73.42 73.38 73.04 72.82 72.84 72.25 72.25 71.73 70.93 70.57 71.26 70.94 70.89 71.09 70.97 70.63 70.36 70.66 70.08 70.30 70.79 70.82 71.29 71.24 71.56 71.05 71.57
69.87 71.60 72.21 72.14 72.31 72.46 72.68 72.80 73.25 73.29 73.31 73.36 73.22 73.12 73.09 73.20 73.10 73.01 72.67 72.57 72.61 72.25 71.83 71.26 70.58 70.42 70.38 70.07 70.49 70.65 70.64 70.29 70.08 69.88 69.53 66.82 67.17 70.47 70.88 70.48 71.01 71.32 71.17
70.73 71.35 71.73 71.76 72.00 72.44 72.32 72.69 73.02 73.47 73.31 73.01 73.01 73.06 72.98 72.91 72.78 72.81 72.61 72.10 72.25 71.98 71.50 70.75 70.28 69.88 70.43 70.55 70.51 69.95 68.93 68.29 68.50 69.56 66.08 65.98 67.67 69.96 70.24 69.78 69.91 70.18 70.49
70.39 71.21 71.27 71.34 71.63 72.11 72.24 72.70 72.79 72.81 72.66 72.51 72.37 72.70 72.70 72.63 72.65 72.59 72.13 71.93 72.05 71.85 71.23 70.66 70.13 70.32 70.22 69.21 68.20 67.83 67.20 67.18 67.81 68.04 63.74 64.12 65.13 68.71 69.65 69.82 70.07 70.13 69.99
70.16 70.71 70.38 70.34 71.22 71.91 72.45 72.68 72.67 72.50 72.03 71.92 72.04 72.58 72.82 72.72 72.57 72.12 71.81 71.74 71.97 71.70 70.84 70.31 69.39 69.39 68.72 67.52 66.85 66.39 66.03 65.90 66.85 63.88 64.05 66.35 65.14 68.98 69.24 69.34 69.44 69.63 69.98
69.97 70.46 70.46 69.79 71.02 71.96 72.54 72.60 72.00 71.88 71.80 71.76 72.08 72.27 72.37 72.36 72.05 71.64 71.45 71.54 71.28 71.44 70.82 69.78 69.33 68.57 67.20 66.07 65.53 65.38 65.33 65.58 63.46 64.48 65.42 65.31 66.04 68.69 68.76 68.75 69.00 69.07 69.30
69.78 70.10 70.45 70.70 70.95 71.34 71.97 71.49 71.08 70.99 71.18 71.32 71.40 71.60 71.74 71.40 71.09 71.18 71.21 71.05 70.98 70.77 70.06 69.28 68.25 67.03 66.17 65.32 64.54 64.35 64.77 64.26 65.62 64.75 65.67 65.78 68.45 68.77 68.21 67.80 68.14 68.57 68.68
69.75 69.77 70.14 70.47 70.96 70.79 70.39 70.01 69.72 69.97 70.22 70.31 70.53 70.40 70.30 69.78 69.89 70.36 70.38 70.33 69.92 69.24 68.63 67.93 66.77 65.59 64.99 64.97 64.17 63.90 64.17 64.20 63.71 65.02 66.15 66.38 69.48 68.86 68.42 67.93 67.76 67.53 67.42
68.88 69.31 69.97 70.13 70.41 70.47 70.26 69.07 68.96 69.16 69.03 69.63 69.70 69.25 68.40 68.53 68.99 69.28 69.10 69.09 68.76 68.10 67.43 66.78 65.37 64.75 64.55 64.08 63.82 63.97 64.16 62.95 59.42 62.29 65.75 66.42 69.29 69.20 68.76 68.14 67.86 67.64 67.42
68.40 68.89 69.55 69.96 69.81 69.88 69.63 69.63 69.07 69.34 69.09 68.98 69.32 68.35 67.12 67.29 67.27 67.81 67.59 67.79 67.76 66.95 66.54 66.01 65.03 64.32 63.69 63.87 63.82 64.29 63.30 59.66 59.28 64.45 65.33 67.66 69.61 69.42 68.93 68.35 67.95 67.81 67.51
66.34 67.78 69.07 69.73 69.67 69.67 69.85 69.52 68.71 69.31 69.23 69.09 68.87 67.70 67.16 66.12 65.94 67.12 67.09 67.17 66.92 66.38 65.99 65.38 64.67 64.07 63.46 60.22 59.91 62.67 59.70 60.08 60.47 64.98 65.40 67.43 70.00 69.57 69.10 68.47 68.35 67.95 67.59
65.93 67.24 68.45 69.05 69.87 69.41 69.21 69.47 69.18 69.18 69.00 68.78 67.70 66.93 66.00 66.01 66.02 65.32 64.42 64.71 63.14 65.40 62.55 62.79 62.11 61.26 60.97 60.53 60.59 61.34 61.36 60.83 61.21 65.11 65.85 67.09 69.77 70.28 69.25 68.85 68.67 68.42 67.84
65.38 66.47 67.73 68.62 68.89 68.86 68.97 68.80 68.47 68.26 68.50 68.08 67.83 65.96 65.80 65.59 64.16 63.40 63.37 62.62 61.66 62.09 60.52 60.72 60.56 60.87 61.02 61.75 61.87 62.35 62.94 61.61 60.41 64.97 65.54 65.93 68.24 70.88 70.00 69.52 69.47 69.18 68.24
65.13 66.37 67.22 67.91 67.86 68.62 68.70 68.22 68.23 67.70 67.75 67.84 67.11 65.96 65.49 64.85 64.17 63.43 62.77 61.94 61.01 60.83 59.70 59.70 60.12 60.96 61.36 61.82 62.42 63.27 63.56 61.63 62.69 64.75 65.15 65.01 66.04 69.13 70.97 70.61 70.38 69.94 68.73
65.30 66.16 67.30 67.49 67.69 68.34 67.95 67.87 67.46 67.36 67.21 66.82 66.59 66.01 64.73 64.49 64.11 63.52 62.52 62.46 61.07 60.81 59.86 59.37 60.13 60.84 61.82 63.21 63.68 64.45 64.25 62.12 62.07 63.87 64.51 64.82 64.09 65.89 68.35 70.17 70.67 70.23 69.51
65.00 66.04 66.87 67.49 67.95 67.58 67.79 67.39 67.38 67.01 66.98 66.22 66.15 65.68 64.98 64.61 63.55 63.65 63.03 62.28 62.38 61.71 60.41 60.36 61.60 62.34 62.75 63.93 64.25 65.23 65.38 64.76 61.89 63.69 63.63 63.60 64.02 63.15 64.64 67.49 68.90 69.52 69.08
65.31 65.06 66.47 68.18 67.63 67.39 67.36 67.23 67.07 66.84 66.49 66.22 65.93 65.49 65.05 65.33 64.22 63.75 63.42 63.13 62.75 62.20 61.92 61.09 61.52 62.24 62.57 63.25 63.92 65.77 65.24 66.05 64.40 62.64 64.61 63.36 63.54 64.47 63.48 64.64 66.31 67.33 67.13
65.70 65.23 65.35 66.51 66.78 66.87 66.60 66.82 66.62 66.33 66.20 66.00 65.87 65.93 65.22 65.11 66.00 64.29 63.96 63.74 62.61 62.07 62.20 62.17 61.66 62.15 62.33 63.25 64.59 64.45 65.54 65.85 66.17 65.45 63.70 64.23 64.36 62.55 62.71 63.26 61.88 63.09 65.22
66.46 65.91 65.73 65.78 66.16 66.03 65.89 65.81 65.75 65.66 65.88 65.87 65.90 66.23 66.31 65.46 65.93 65.51 64.52 64.20 62.99 62.07 61.65 61.83 61.54 62.34 63.35 63.69 64.77 65.19 65.55 66.20 63.72 63.84 64.20 65.44 63.39 63.62 62.62 62.61 59.57 60.30 62.45
66.47 65.88 65.71 65.25 65.37 65.52 64.84 63.92 64.01 64.16 64.71 65.48 65.79 66.31 66.67 66.85 65.91 66.07 65.64 64.01 64.03 62.93 62.31 62.00 61.66 61.86 61.78 63.17 62.09 61.63 62.67 63.24 62.36 63.24 63.75 62.80 62.89 62.74 60.78 57.86 53.83 52.10 54.13
66.34 66.09 65.82 65.77 65.56 65.28 65.64 64.97 64.80 64.84 65.23 65.40 66.05 66.38 66.96 66.93 66.96 66.46 66.22 64.78 64.03 63.04 61.88 61.46 61.73 61.05 61.60 62.54 59.99 58.73 57.39 58.27 59.25 60.75 60.58 59.83 55.19 56.09 55.04 51.62 49.76 48.99 49.50
65.66 66.60 65.97 66.25 66.32 66.01 66.02 66.39 65.43 64.76 64.81 65.37 65.46 66.37 67.05 67.52 67.45 67.15 66.61 66.09 64.03 63.91 62.38 61.36 62.06 61.62 60.17 60.00 60.19 59.19 54.80 54.15 55.24 55.52 51.58 52.14 52.13 53.50 50.67 47.94 46.89 46.72 46.50
66.07 67.14 67.34 66.70 66.80 66.96 66.82 66.58 65.73 64.81 64.09 65.61 66.23 66.97 67.38 67.96 67.56 67.22 66.79 66.12 64.93 64.09 62.54 62.31 62.84 61.68 61.23 59.80 59.74 60.24 58.37 57.17 53.27 51.01 50.35 49.85 50.47 50.51 48.71 47.99 47.14 47.07 46.08
65.80 67.09 67.48 67.12 66.97 67.40 67.33 66.73 66.52 65.66 65.98 66.48 66.78 66.38 66.91 67.55 67.94 67.53 67.10 66.20 65.17 64.09 63.32 62.45 62.02 61.59 61.52 61.05 59.70 58.24 56.98 55.98 54.37 52.58 43.47 45.41 47.64 47.71 47.64 45.99 44.28 44.53 44.79
63.79 66.35 67.18 66.92 66.90 67.45 67.45 67.11 66.57 66.08 66.22 65.54 66.03 65.64 66.18 66.49 67.29 67.24 67.06 66.64 66.21 64.82 63.21 62.57 63.01 62.66 62.44 61.40 60.67 60.26 58.47 56.78 54.72 50.90 46.73 46.31 45.05 45.22 45.46 43.70 42.68 42.98 43.92
MSLP
1009.18 1009.41 1009.91 1010.37 1010.58 1011.23 1011.71 1012.08 1012.48 1012.65 1012.77 1012.92 1013.28 1013.74 1014.18 1014.67 1015.10 1015.43 1015.68 1015.79 1015.94 1016.15 1016.43 1016.67 1016.80 1017.04 1017.24 1017.43 1017.60 1017.69 1017.82 1017.94 1017.99 1017.92 1017.95 1017.92 1017.98 1017.95 1017.95 1017.84 1017.78 1017.76 1017.70
1008.28 1009.08 1009.67 1010.26 1010.48 1011.13 1011.62 1012.33 1012.66 1013.00 1013.09 1013.33 1013.65 1014.04 1014.43 1014.83 1015.27 1015.60 1015.82 1016.03 1016.15 1016.41 1016.69 1016.90 1017.10 1017.36 1017.60 1017.89 1017.97 1018.13 1018.22 1018.36 1018.35 1018.37 1018.46 1018.38 1018.37 1018.32 1018.34 1018.21 1018.18 1018.20 1018.18
1008.44 1009.13 1009.76 1010.30 1010.33 1010.87 1011.56 1012.05 1012.57 1012.96 1013.36 1013.75 1014.06 1014.31 1014.62 1014.99 1015.28 1015.59 1015.88 1016.13 1016.40 1016.67 1016.88 1017.16 1017.47 1017.66 1017.99 1018.23 1018.37 1018.47 1018.48 1018.54 1018.58 1018.64 1018.74 1018.87 1018.72 1018.58 1018.54 1018.50 1018.50 1018.43 1018.41
1008.46 1009.15 1009.88 1010.25 1010.28 1010.97 1011.49 1012.04 1012.53 1013.06 1013.55 1013.99 1014.34 1014.58 1014.82 1015.07 1015.41 1015.66 1016.02 1016.34 1016.61 1016.87 1017.12 1017.37 1017.64 1017.98 1018.38 1018.53 1018.63 1018.67 1018.64 1018.68 1018.69 1018.75 1018.99 1019.05 1018.96 1018.90 1018.89 1018.94 1018.89 1018.86 1018.80
1008.79 1009.26 1009.99 1010.38 1010.57 1011.01 1011.60 1012.10 1012.63 1013.23 1013.67 1014.06 1014.41 1014.70 1014.97 1015.19 1015.48 1015.84 1016.22 1016.51 1016.79 1017.04 1017.27 1017.60 1017.95 1018.31 1018.54 1018.76 1018.90 1018.87 1018.84 1018.66 1018.51 1018.90 1019.22 1019.42 1019.43 1019.35 1019.33 1019.39 1019.52 1019.49 1019.35
1008.91 1009.50 1010.07 1010.61 1010.86 1011.20 1011.77 1012.29 1012.76 1013.37 1013.89 1014.30 1014.63 1014.95 1015.21 1015.50 1015.73 1016.06 1016.43 1016.74 1017.00 1017.22 1017.46 1017.76 1018.14 1018.50 1018.71 1018.94 1019.07 1019.05 1018.88 1018.74 1018.83 1019.19 1019.55 1019.76 1019.89 1019.76 1019.75 1019.75 1019.85 1019.89 1019.82
1008.95 1009.53 1010.19 1010.66 1010.99 1011.41 1011.93 1012.41 1012.92 1013.56 1014.03 1014.45 1014.81 1015.13 1015.44 1015.69 1015.96 1016.28 1016.59 1016.86 1017.21 1017.44 1017.71 1018.04 1018.27 1018.57 1018.83 1019.00 1019.17 1019.22 1019.08 1018.95 1019.11 1019.46 1019.76 1020.08 1020.16 1020.04 1020.05 1020.05 1020.07 1020.16 1020.19
1008.61 1009.56 1010.31 1010.81 1011.16 1011.56 1012.06 1012.52 1013.09 1013.67 1014.14 1014.53 1014.99 1015.33 1015.66 1015.96 1016.20 1016.49 1016.75 1017.03 1017.35 1017.58 1017.79 1018.07 1018.29 1018.52 1018.84 1019.16 1019.39 1019.33 1019.19 1019.14 1019.30 1019.65 1019.93 1020.21 1020.33 1020.34 1020.38 1020.38 1020.39 1020.44 1020.49
1009.10 1009.41 1010.31 1010.98 1011.44 1011.80 1012.12 1012.55 1013.11 1013.75 1014.18 1014.53 1015.05 1015.42 1015.84 1016.19 1016.39 1016.66 1016.85 1017.19 1017.50 1017.74 1017.94 1018.20 1018.41 1018.61 1018.82 1019.16 1019.53 1019.38 1019.36 1019.47 1019.59 1019.77 1019.99 1020.28 1020.36 1020.48 1020.55 1020.65 1020.65 1020.64 1020.72
1009.75 1010.01 1010.47 1010.97 1011.53 1012.06 1012.44 1012.70 1013.21 1013.82 1014.28 1014.69 1015.08 1015.52 1015.89 1016.33 1016.64 1016.87 1017.12 1017.28 1017.58 1017.77 1018.03 1018.33 1018.51 1018.74 1018.90 1019.13 1019.53 1019.72 1019.63 1019.62 1019.79 1019.89 1020.00 1020.28 1020.43 1020.55 1020.69 1020.74 1020.79 1020.80 1020.88
1010.23 1010.41 1010.72 1011.02 1011.44 1012.05 1012.54 1013.03 1013.38 1013.92 1014.44 1014.85 1015.26 1015.64 1016.10 1016.46 1016.91 1017.14 1017.32 1017.48 1017.73 1017.92 1018.12 1018.37 1018.64 1018.86 1018.97 1019.07 1019.34 1019.60 1019.67 1019.72 1019.76 1019.77 1019.98 1020.10 1020.38 1020.56 1020.72 1020.79 1020.85 1020.91 1021.05
1009.81 1010.29 1010.58 1011.00 1011.46 1011.97 1012.51 1013.11 1013.67 1014.05 1014.61 1015.03 1015.43 1015.80 1016.20 1016.57 1017.02 1017.35 1017.51 1017.75 1017.90 1018.21 1018.34 1018.53 1018.79 1019.04 1019.17 1019.27 1019.38 1019.51 1019.59 1019.54 1019.60 1019.72 1020.04 1020.26 1020.37 1020.57 1020.71 1020.84 1020.96 1021.07 1021.28
1009.20 1009.99 1010.46 1010.87 1011.17 1011.76 1012.27 1013.00 1013.68 1014.11 1014.55 1015.05 1015.44 1015.88 1016.21 1016.64 1017.04 1017.48 1017.74 1017.93 1018.21 1018.45 1018.78 1018.92 1019.13 1019.24 1019.28 1019.34 1019.30 1019.52 1019.48 1019.55 1019.73 1019.89 1020.05 1020.27 1020.44 1020.57 1020.73 1020.85 1021.02 1021.20 1021.42
1008.67 1009.47 1010.17 1010.75 1011.06 1011.44 1012.03 1012.70 1013.31 1013.88 1014.43 1014.87 1015.29 1015.70 1016.21 1016.62 1017.02 1017.49 1017.72 1017.99 1018.20 1018.45 1018.80 1019.15 1019.20 1019.20 1019.28 1019.33 1019.27 1019.37 1019.50 1019.53 1019.75 1019.90 1020.04 1020.24 1020.52 1020.59 1020.71 1020.86 1021.01 1021.18 1021.33
1008.53 1008.94 1009.67 1010.34 1010.93 1011.18 1011.82 1012.34 1012.99 1013.49 1014.01 1014.54 1015.07 1015.48 1015.87 1016.38 1016.79 1017.20 1017.60 1017.87 1018.11 1018.38 1018.57 1018.93 1019.07 1019.10 1019.17 1019.22 1019.26 1019.24 1019.45 1019.55 1019.66 1019.84 1020.07 1020.24 1020.49 1020.67 1020.65 1020.73 1020.84 1020.96 1021.22
1008.12 1008.63 1009.09 1009.78 1010.46 1010.94 1011.50 1012.06 1012.70 1013.33 1013.75 1014.32 1014.78 1015.17 1015.60 1016.03 1016.43 1016.96 1017.35 1017.70 1017.92 1018.15 1018.44 1018.58 1018.63 1018.91 1019.10 1019.12 1019.16 1019.17 1019.32 1019.56 1019.70 1019.87 1020.02 1020.14 1020.32 1020.47 1020.64 1020.68 1020.67 1020.64 1021.08
1007.01 1008.11 1008.57 1009.03 1009.91 1010.58 1011.13 1011.84 1012.28 1012.95 1013.49 1014.04 1014.54 1014.91 1015.35 1015.80 1016.24 1016.64 1017.12 1017.41 1017.62 1017.85 1018.23 1018.60 1018.69 1018.81 1019.03 1019.10 1019.18 1019.00 1019.03 1019.25 1019.41 1019.61 1019.80 1020.04 1020.21 1020.35 1020.52 1020.60 1020.79 1020.89 1021.13
1006.57 1007.17 1008.09 1008.61 1009.24 1009.89 1010.38 1011.15 1011.88 1012.43 1013.04 1013.56 1014.09 1014.67 1015.04 1015.55 1015.85 1016.28 1016.76 1017.13 1017.28 1017.74 1018.10 1018.37 1018.72 1018.96 1019.07 1019.19 1019.11 1018.83 1018.78 1019.08 1019.16 1019.33 1019.56 1019.76 1020.09 1020.37 1020.51 1020.68 1020.91 1021.23 1021.26
1005.17 1006.27 1007.31 1007.96 1008.57 1009.23 1009.92 1010.52 1011.27 1011.76 1012.46 1013.02 1013.63 1014.18 1014.65 1015.08 1015.56 1015.95 1016.21 1016.53 1017.01 1017.47 1017.93 1018.24 1018.52 1018.79 1019.06 1019.04 1019.01 1018.99 1018.94 1019.00 1019.16 1019.47 1019.69 1019.81 1019.90 1020.18 1020.38 1021.00 1021.39 1021.42 1021.33
1004.63 1005.42 1006.20 1007.00 1007.91 1008.98 1009.76 1010.45 1011.16 1011.64 1012.17 1012.53 1012.95 1013.44 1014.04 1014.51 1015.05 1015.58 1015.94 1016.25 1016.68 1017.34 1017.67 1018.06 1018.34 1018.54 1018.65 1018.71 1018.87 1019.02 1019.05 1019.11 1019.38 1019.69 1019.82 1019.91 1020.04 1020.24 1020.58 1021.34 1021.79 1022.16 1021.97
1004.14 1005.07 1005.80 1006.54 1007.36 1008.52 1009.25 1009.85 1010.56 1010.78 1011.41 1011.94 1012.40 1012.78 1013.35 1013.82 1014.39 1015.02 1015.48 1015.82 1016.15 1016.79 1017.25 1017.65 1017.99 1018.40 1018.68 1018.68 1019.14 1019.31 1019.31 1019.41 1019.77 1019.97 1020.06 1020.10 1020.31 1020.82 1021.14 1021.79 1022.47 1022.75 1023.04
1002.90 1003.66 1004.77 1005.49 1006.34 1006.99 1007.72 1008.33 1009.28 1009.92 1010.63 1011.11 1011.84 1012.24 1012.62 1013.15 1013.71 1014.17 1014.76 1015.26 1015.66 1016.25 1016.76 1017.15 1017.61 1018.09 1018.45 1018.45 1019.01 1019.65 1019.95 1020.16 1020.35 1020.63 1020.72 1020.80 1021.12 1021.40 1022.00 1022.46 1022.93 1023.46 1024.02
1001.93 1002.69 1003.50 1004.19 1005.05 1005.71 1006.55 1007.92 1008.94 1009.82 1010.52 1010.99 1011.12 1011.52 1011.90 1012.39 1012.84 1013.25 1013.78 1014.46 1015.10 1015.53 1015.99 1016.44 1016.94 1017.45 1018.17 1018.51 1018.31 1018.82 1020.05 1020.42 1020.96 1021.72 1021.81 1021.84 1022.17 1022.49 1022.94 1023.34 1023.68 1024.11 1024.71
1000.27 1001.20 1002.19 1003.16 1003.84 1004.86 1005.87 1006.74 1007.47 1007.66 1008.46 1008.69 1009.43 1010.39 1011.01 1011.46 1011.96 1012.42 1012.97 1013.50 1014.25 1014.86 1015.22 1015.45 1016.03 1016.51 1017.16 1017.95 1018.56 1018.49 1018.64 1019.27 1020.62 1022.14 1022.63 1022.76 1022.95 1023.38 1023.76 1024.14 1024.36 1024.85 1025.20
998.89 999.99 1000.95 1002.11 1003.02 1003.81 1004.60 1005.06 1006.10 1006.93 1007.14 1007.96 1008.79 1009.58 1010.14 1010.71 1011.01 1011.56 1012.06 1012.82 1013.39 1014.01 1014.44 1014.82 1015.32 1015.83 1016.20 1017.04 1017.54 1018.53 1018.88 1019.29 1019.67 1020.77 1022.78 1023.50 1023.71 1024.57 1024.73 1024.95 1025.36 1025.56 1025.78
998.04 998.65 999.91 1000.95 1001.86 1002.91 1003.58 1004.18 1004.82 1005.36 1006.36 1007.15 1007.86 1008.61 1009.18 1009.68 1010.17 1010.71 1011.27 1011.87 1012.56 1013.15 1013.66 1014.13 1014.73 1015.19 1015.67 1016.02 1016.67 1017.19 1017.76 1018.64 1019.21 1019.79 1021.68 1023.17 1023.97 1025.34 1025.58 1025.81 1025.96 1026.14 1026.23
Wind_Speed
9 14 16 15 23 23 22 22 21 20 19 21 21 21 20 19 18 16 16 16 16 17 16 16 16 16 16 16 16 14 13 12 12 13 14 15 15 15 15 13 12 9 12
16 16 18 17 21 22 22 22 22 22 22 21 21 20 20 19 18 17 16 16 16 17 16 16 16 16 16 15 14 13 13 11 12 12 13 14 15 15 15 14 13 10 12
17 15 15 18 22 22 21 20 20 21 22 21 21 21 20 19 18 17 16 16 15 16 16 16 16 16 15 14 12 10 9 6 8 9 11 5 6 14 15 14 13 13 14
17 15 14 18 22 22 21 19 18 19 19 19 19 18 18 18 17 17 16 15 15 15 15 16 16 15 14 12 10 9 7 5 2 5 4 4 6 14 14 14 14 14 13
16 15 13 16 21 22 20 20 19 18 17 17 17 17 16 16 16 17 15 14 14 14 14 14 14 13 11 9 8 6 6 5 6 7 5 5 3 10 13 13 12 13 13
15 13 14 14 19 21 20 19 19 17 16 15 15 15 16 15 16 15 14 14 14 13 13 12 12 10 9 7 7 6 7 8 10 6 5 4 3 11 13 13 13 12 12
15 13 14 15 18 21 20 19 18 17 16 15 14 15 14 15 15 14 13 13 13 14 13 10 9 8 7 5 6 7 7 8 6 6 6 4 2 10 12 13 13 12 12
18 14 14 15 18 20 20 19 17 16 16 14 13 13 13 13 14 13 13 12 12 12 12 11 9 6 4 3 7 7 8 8 6 6 5 4 5 10 11 12 12 11 11
13 16 14 13 14 16 17 17 16 15 15 15 13 12 12 11 12 13 13 13 12 11 10 9 8 6 4 1 7 7 7 7 5 4 6 3 7 9 11 11 11 11 10
9 11 13 11 11 11 12 15 16 15 14 14 14 12 12 11 10 11 11 12 11 11 10 9 8 6 3 2 6 6 6 6 3 3 4 4 8 9 10 10 10 10 9
9 12 15 12 11 10 9 10 14 16 14 13 13 12 10 5 6 8 7 11 11 10 10 9 7 5 3 2 4 5 4 1 1 3 3 9 9 9 9 9 8 9 8
18 16 13 12 13 11 8 9 8 9 8 7 7 9 6 6 5 5 6 9 10 9 9 8 7 4 2 1 1 4 1 2 2 4 3 7 8 9 9 8 7 7 7
15 13 15 14 13 12 9 8 5 5 6 5 7 7 6 5 4 3 3 3 3 6 2 3 2 1 2 1 1 2 1 2 2 2 4 8 7 8 8 8 7 6 6
18 16 17 16 16 15 9 9 10 8 8 8 7 8 6 5 5 4 3 4 4 4 5 3 2 3 2 2 2 2 1 1 2 3 4 8 7 8 9 8 7 6 6
17 18 20 18 17 16 13 11 10 10 9 9 8 8 7 6 6 5 4 4 4 4 4 4 4 4 3 3 3 2 1 2 2 3 3 8 7 7 9 9 8 8 7
16 18 20 20 19 16 14 16 12 8 9 7 7 8 8 6 6 6 5 5 4 4 4 4 5 4 3 2 4 4 4 4 4 5 3 4 9 8 8 9 8 8 8
17 16 19 22 20 18 17 15 11 8 8 8 7 9 10 7 7 8 5 5 5 4 5 3 3 3 2 2 5 4 3 5 4 5 5 4 5 9 6 7 5 3 5
17 19 18 16 18 18 16 12 9 9 8 8 7 7 10 9 9 7 6 5 5 4 4 4 3 2 3 3 3 4 4 4 5 5 4 4 3 3 5 5 4 3 7
21 20 19 18 20 19 15 12 11 12 9 8 7 8 11 10 9 7 7 6 5 4 4 4 3 3 3 3 5 3 3 2 2 1 2 3 5 4 3 7 11 8 10
19 19 19 17 17 16 11 9 8 8 8 8 9 9 11 10 11 8 6 6 5 4 4 4 3 3 3 5 3 3 2 1 1 1 2 3 3 2 4 9 7 9 14
18 18 18 18 17 14 11 12 10 12 11 10 9 12 12 11 11 10 7 8 7 7 7 7 4 5 3 4 3 2 2 3 5 3 3 3 5 5 8 9 6 6 7
21 22 20 21 19 17 14 13 9 11 9 9 8 10 12 12 12 12 12 9 9 6 6 7 6 3 2 4 4 3 0 3 4 7 4 4 6 5 8 10 10 9 7
21 22 22 23 23 21 19 11 4 5 3 6 10 10 12 13 14 14 13 11 8 9 8 7 7 7 4 1 2 6 2 3 3 4 7 6 7 7 8 9 10 9 7
23 22 22 22 23 20 19 16 20 16 14 13 11 10 12 15 14 14 13 13 11 9 9 10 8 5 5 5 0 1 2 5 4 3 4 6 7 8 7 7 8 8 7
24 21 22 23 22 22 22 21 18 17 13 8 10 14 14 13 14 14 14 13 12 9 9 10 8 6 4 5 4 3 2 2 1 4 4 2 6 5 6 6 5 6 6
22 22 20 23 23 22 23 23 23 23 17 12 13 13 12 11 12 14 15 14 13 11 10 10 10 11 9 5 5 5 5 5 4 4 5 4 5 4 5 5 5 4 4
Wind_Direction
182 165 161 156 130 130 128 127 128 126 121 116 115 116 116 116 118 120 120 115 112 110 110 108 104 103 103 102 99 95 89 80 76 77 80 78 76 73 68 63 63 64 74
152 159 157 155 133 131 129 133 131 131 127 125 124 124 125 127 128 125 121 119 116 117 117 112 109 108 103 98 90 83 79 76 65 65 68 77 77 73 66 62 64 68 71
147 153 154 156 137 132 133 131 129 128 129 131 132 134 135 133 130 126 122 119 118 119 116 113 110 104 98 88 78 76 78 80 64 73 71 51 72 77 70 60 61 63 63
145 150 156 156 138 138 135 132 129 128 129 130 132 133 133 131 128 123 121 120 120 120 117 112 108 103 97 85 78 72 64 47 86 116 62 53 80 85 82 77 73 73 70
146 148 154 151 141 139 139 137 135 134 133 133 132 132 130 128 126 124 125 124 122 122 117 113 112 110 101 94 87 78 61 33 134 125 98 67 44 89 85 79 69 65 67
143 146 143 148 143 141 142 142 139 139 138 136 136 134 132 132 129 128 128 127 125 121 119 118 115 111 104 101 95 76 50 66 98 107 100 74 52 99 93 87 79 72 66
144 143 147 150 147 146 147 146 144 143 142 140 140 139 140 139 134 131 131 128 128 127 125 123 117 115 113 103 80 69 55 74 122 114 110 97 84 106 99 95 88 80 75
144 145 150 150 152 151 151 148 146 148 146 142 143 142 144 141 136 135 130 126 128 132 134 137 136 125 115 100 81 69 62 68 116 117 119 119 135 115 106 98 92 84 78
142 144 151 156 154 153 152 150 149 152 150 147 147 145 142 141 140 139 137 134 137 138 138 142 143 146 150 71 75 61 44 72 116 130 134 137 142 125 113 106 101 95 90
133 146 155 155 156 159 160 151 151 152 152 151 149 146 144 144 145 144 142 143 147 146 148 154 154 165 155 48 48 67 47 62 82 152 135 152 155 137 125 117 111 106 99
149 161 170 162 156 159 158 160 154 156 156 154 150 146 142 141 146 149 151 152 151 154 159 160 164 171 148 70 13 58 79 88 124 142 156 162 161 145 135 128 125 114 102
171 174 173 166 166 161 158 160 160 163 161 161 156 155 145 140 144 155 154 158 156 165 168 168 171 171 102 19 357 71 84 53 49 133 140 156 166 156 152 149 137 118 106
162 170 176 175 167 166 163 166 166 165 163 161 156 156 147 142 146 147 147 157 145 171 154 156 154 152 193 192 308 63 61 39 84 146 153 167 179 172 168 163 153 133 123
169 171 175 178 178 178 169 175 176 175 175 176 173 157 156 158 155 160 168 168 166 168 168 179 186 218 244 254 254 333 95 209 150 163 172 175 190 192 184 180 174 163 147
172 172 177 178 180 179 178 176 179 180 180 180 174 169 163 168 171 166 178 173 180 170 176 184 196 200 213 248 270 270 179 196 167 164 169 186 201 216 205 197 192 183 173
172 178 175 180 181 180 179 182 183 179 172 173 176 177 172 172 171 177 175 192 189 182 191 192 188 187 202 208 255 249 227 193 166 176 181 194 203 215 224 218 197 189 179
184 172 181 178 180 181 181 182 180 176 172 178 182 178 181 176 176 174 181 184 200 189 189 204 200 173 194 224 248 252 217 188 181 187 186 196 202 221 215 232 219 229 55
177 181 179 179 179 180 179 175 175 176 177 181 181 183 185 186 180 175 179 201 187 172 177 186 182 196 225 217 246 237 206 194 190 199 188 195 174 187 214 217 203 64 69
183 178 182 185 183 184 178 172 176 176 180 183 178 186 189 188 189 185 187 198 176 172 185 186 183 169 191 230 231 245 226 230 162 298 189 206 194 193 182 83 62 80 99
187 185 183 185 182 183 170 167 173 175 184 185 188 189 188 193 190 189 190 195 172 172 192 171 183 186 188 204 181 213 231 284 62 317 313 6 34 149 110 98 77 57 69
189 184 185 182 179 176 174 176 180 187 187 191 196 190 190 194 191 190 197 195 185 192 195 192 169 177 212 156 105 7 2 43 47 20 52 78 75 61 87 96 84 73 54
190 189 186 187 180 182 185 186 189 185 198 188 190 195 196 192 191 194 198 201 194 185 185 178 167 137 187 174 142 87 254 3 42 22 37 67 71 80 82 86 90 77 63
195 193 190 187 186 187 185 177 166 147 120 173 193 194 201 195 195 199 200 200 191 192 192 183 182 167 158 180 185 140 115 204 101 0 21 43 49 63 72 80 81 80 75
202 196 194 190 187 190 179 179 187 187 185 203 194 190 197 200 199 197 195 200 194 197 193 188 184 167 144 163 148 123 107 146 157 122 27 36 58 65 74 78 83 82 79
206 196 196 191 189 187 187 184 188 196 204 185 191 187 193 199 201 198 197 194 196 192 198 190 175 173 171 157 152 151 113 76 141 142 146 132 72 40 56 66 65 80 74
210 204 193 193 193 188 190 191 190 198 192 183 185 190 192 191 195 200 197 199 198 199 193 192 190 185 190 169 165 169 162 176 192 140 109 131 116 57 58 49 58 67 66